Location: Splawn
(30.9202°N, 96.9858°W)
Time: 13:26:53
(UTC+00:00)

Vanguard 3 - All Passes

Search period start: 17 February 2020 00:00
Search period end: 27 February 2020 00:00
Orbit: 508 x 3263 km, 33.3° (Epoch: 16 February)

Date Brightness Start Highest point End Pass type
(mag) Time Alt. Az. Time Alt. Az. Time Alt. Az.
17 Feb - 01:44:11 10° W 01:58:00 25° SW 02:11:58 10° S visible
17 Feb - 15:38:04 10° SSW 15:42:56 36° SE 15:50:47 10° E daylight
17 Feb - 17:47:52 10° WSW 17:54:57 88° NNW 18:08:15 10° ENE daylight
17 Feb - 19:59:22 10° W 20:09:33 82° N 20:27:18 10° E daylight
17 Feb - 22:11:48 10° WNW 22:25:31 72° SSW 22:45:22 10° SE daylight
18 Feb - 00:26:30 10° W 00:41:39 38° SW 00:58:50 10° SSE visible
18 Feb - 02:52:58 10° WSW 02:56:49 11° SW 03:00:40 10° SW visible
18 Feb - 14:27:02 10° S 14:29:49 15° SE 14:33:16 10° E daylight
18 Feb - 16:34:47 10° WSW 16:40:29 71° SSE 16:50:52 10° ENE daylight
18 Feb - 18:45:40 10° W 18:53:52 79° N 19:08:58 10° E daylight
18 Feb - 20:57:28 10° WNW 21:09:01 86° SSW 21:27:59 10° ESE daylight
18 Feb - 23:10:35 10° WNW 23:25:02 52° SSW 23:43:57 10° SE daylight
19 Feb - 01:28:27 10° W 01:40:43 22° SW 01:53:37 10° S visible
19 Feb - 15:22:14 10° SW 15:26:46 40° SSE 15:34:05 10° E daylight
19 Feb - 17:32:16 10° W 17:38:49 83° N 17:51:02 10° E daylight
19 Feb - 19:43:36 10° W 19:53:01 84° N 20:09:53 10° E daylight
19 Feb - 21:55:45 10° WNW 22:08:29 67° SSW 22:27:43 10° SE daylight
20 Feb - 00:10:27 10° W 00:24:22 33° SW 00:40:49 10° SSE visible
20 Feb - 14:10:43 10° S 14:13:37 17° SE 14:17:18 10° E daylight
20 Feb - 16:19:10 10° WSW 16:24:27 78° SSE 16:33:53 10° ENE daylight
20 Feb - 18:30:02 10° W 18:37:36 78° N 18:51:39 10° E daylight
20 Feb - 20:41:35 10° WNW 20:52:16 81° SSW 21:10:25 10° ESE daylight
20 Feb - 22:54:33 10° W 23:07:53 46° SSW 23:26:03 10° SSE daylight
21 Feb - 01:13:13 10° WSW 01:23:34 18° SW 01:34:42 10° S visible
21 Feb - 15:06:27 10° SW 15:10:44 46° SSE 15:17:29 10° E daylight
21 Feb - 17:16:42 10° W 17:22:45 79° N 17:33:54 10° E daylight
21 Feb - 19:27:52 10° WNW 19:36:34 87° NNE 19:52:27 10° ESE daylight
21 Feb - 21:39:48 10° WNW 21:51:33 60° SSW 22:09:56 10° SE daylight
21 Feb - 23:54:40 10° W 00:07:13 29° SW 00:22:29 10° SSE daylight
22 Feb - 13:54:31 10° S 13:57:31 20° SE 14:01:19 10° E daylight
22 Feb - 16:03:35 10° WSW 16:08:29 86° SSE 16:17:01 10° ENE daylight
22 Feb - 18:14:26 10° W 18:21:25 78° N 18:34:25 10° E daylight
22 Feb - 20:25:45 10° WNW 20:35:37 75° SSW 20:52:47 10° ESE daylight
22 Feb - 22:38:41 10° W 22:50:51 40° SSW 23:07:57 10° SSE daylight
23 Feb - 00:58:52 10° WSW 01:06:35 14° SW 01:14:55 10° SSW visible
23 Feb - 14:50:43 10° SW 14:54:46 53° SSE 15:00:58 10° ENE daylight
23 Feb - 17:01:11 10° W 17:06:45 75° N 17:16:54 10° E daylight
23 Feb - 19:12:10 10° WNW 19:20:11 89° SSW 19:35:02 10° ESE daylight
23 Feb - 21:23:57 10° W 21:34:44 53° SSW 21:52:00 10° SE daylight
23 Feb - 23:39:14 10° W 23:50:13 24° SW 00:03:47 10° S daylight
24 Feb - 13:38:24 10° SSW 13:41:30 24° SE 13:45:21 10° E daylight
24 Feb - 15:48:02 10° WSW 15:52:36 85° NNW 16:00:17 10° ENE daylight
24 Feb - 17:58:51 10° W 18:05:17 79° N 18:17:14 10° E daylight
24 Feb - 20:10:01 10° WNW 20:19:03 68° SSW 20:35:05 10° SE daylight
24 Feb - 22:23:00 10° W 22:34:00 34° SSW 22:49:37 10° SSE daylight
25 Feb - 00:47:23 10° SW 00:49:46 10° SW 00:52:14 10° SSW visible
25 Feb - 14:35:02 10° WSW 14:38:54 63° SSE 14:44:34 10° ENE daylight
25 Feb - 16:45:40 10° W 16:50:51 72° N 17:00:00 10° E daylight
25 Feb - 18:56:31 10° WNW 19:03:53 84° SSW 19:17:37 10° ESE daylight
25 Feb - 21:08:15 10° W 21:18:04 46° SSW 21:33:56 10° SE daylight
25 Feb - 23:24:16 10° WSW 23:33:24 19° SW 23:44:36 10° S daylight
26 Feb - 13:22:21 10° SSW 13:25:35 29° SSE 13:29:25 10° E daylight
26 Feb - 15:32:31 10° W 15:36:47 78° N 15:43:40 10° ENE daylight
26 Feb - 17:43:18 10° WNW 17:49:14 81° N 18:00:09 10° E daylight
26 Feb - 19:54:20 10° W 20:02:37 60° SSW 20:17:19 10° SE daylight
26 Feb - 22:07:34 10° W 22:17:18 28° SSW 22:31:02 10° SSE daylight
